www.pogodaiklimat.ru
ПОГОДА в Коццо Спадаро
Время
(UTC), дата
16 18.11
17 18.11
18 18.11
06 19.11
07 19.11
08 19.11
09 19.11
10 19.11
11 19.11
12 19.11
13 19.11
14 19.11
15 19.11
16 19.11
17 19.11
18 19.11
06 20.11
07 20.11
08 20.11
09 20.11
10 20.11
11 20.11
12 20.11
13 20.11
14 20.11
15 20.11
16 20.11
17 20.11
18 20.11
06 21.11
07 21.11
08 21.11
09 21.11
10 21.11
11 21.11
12 21.11
13 21.11
14 21.11
15 21.11
16 21.11
17 21.11
18 21.11
06 22.11
07 22.11
08 22.11
09 22.11
10 22.11
11 22.11
12 22.11
13 22.11
14 22.11
15 22.11
16 22.11
17 22.11
18 22.11
06 23.11
07 23.11
08 23.11
09 23.11
10 23.11
11 23.11
12 23.11
13 23.11
14 23.11
15 23.11
16 23.11
17 23.11
18 23.11
06 24.11
07 24.11
08 24.11
09 24.11
10 24.11
11 24.11
12 24.11
13 24.11
14 24.11
15 24.11
16 24.11
17 24.11
18 24.11
06 25.11
07 25.11
08 25.11
09 25.11
10 25.11
11 25.11
12 25.11
13 25.11
14 25.11
15 25.11
Ветер
(напр.,м/с)
Видим. Явления Облачность Т
(С)
Тd
(С)
f
(%)
Тe
(С)
Тes
(С)
Комфортность P
(гПа)
Po
(гПа)
Тmin
(С)
Tmax
(С)
R
(мм)
R24
(мм)
S
(см)
В 4
{7}
9000 м слаб. дождь 8/8 400 м
[Cb calv]
+18.2 +16.0 87 +18 +18 1021.0 1014.9
В 5
{8}
15 км в посл. час дождь 3/3 450 м
[Cu med, cong]
+18.8 +16.4 86 +20 +20 1021.1 1015.0
В 5 10 км {дождь} 3/3 450 м
[Cu med, cong]
+18.8 +16.2 85 +20 +20 1021.1 1015.0 +21.4 3
СВ 7
{10}
20 км 5/3 600 м
[Cu med, cong Ac trans]
+18.4 +14.5 78 +18 +18 1021.9 1015.8 +18.0
В 7 20 км 5/3 600 м
[Cu med, cong Ac trans]
+19.0 +14.9 77 +20 +20 1022.1 1016.0
СВ 5
{8}
20 км 6/4 600 м
[Cu med, cong Ac trans]
+19.0 +14.7 76 +20 +20 1022.1 1016.0
СВ 5 20 км 8/5 450 м
[Cu med, cong Ac trans]
+19.8 +15.5 76 +22 +22 комфорт 1022.2 1016.1
СВ 5 20 км 8/5 450 м
[Cu med, cong Ac trans]
+20.0 +16.0 78 +22 +24 комфорт 1022.3 1016.2
В 4 20 км 8/5 450 м
[Cu med, cong Ac trans]
+19.6 +15.0 75 +21 +23 комфорт 1022.3 1016.2
В 4 20 км 9/5 450 м
[Cu med, cong Ac trans]
+19.2 +15.1 77 +21 +22 комфорт 1022.0 1015.9
В 3 20 км 6/4 450 м
[Cu med, cong Ac trans]
+20.0 +15.4 75 +23 +25 комфорт 1021.1 1015.0
В 3 20 км 6/4 450 м
[Cu med, cong Ac trans]
+20.0 +15.2 74 +23 +24 комфорт 1020.8 1014.7
В 2 20 км 6/4 600 м
[Cu med, cong Ac trans]
+19.0 +14.5 75 +21 +21 комфорт 1020.1 1014.0
З 1 20 км 10/6 450 м
[Cu med, cong Ac trans]
+18.8 +14.9 78 +21 +21 комфорт 1020.1 1014.0
20 км 10/6 450 м
[Cu med, cong Ac trans]
+18.0 +15.1 83 1020.0 1013.9
З 2 20 км 10/6 450 м
[Cu med, cong Ac trans]
+16.8 +14.8 88 +17 +17 1019.7 1013.6 +20.6
СЗ 3 20 км ясно +15.0 +11.9 82 +14 +14 1015.0 1008.9 +14.8
СЗ 3 25 км ясно +22.0 +17.6 76 +27 +27 душно 1014.9 1008.9
З 3 25 км ясно +19.2 +14.2 73 +21 +23 комфорт 1014.8 1008.8
З 4
{6}
20 км 3/3 600 м
[Cu med, cong]
+20.2 +14.8 71 +23 +25 комфорт 1014.1 1008.1
З 4
{7}
25 км 3/3 600 м
[Cu med, cong]
+21.0 +15.5 71 +25 +28 комфорт 1014.0 1008.0
З 5 25 км 6/3 600 м
[Cu med, cong Ac trans]
+21.0 +14.4 66 +24 +26 комфорт 1013.0 1007.1
З 5 20 км 8/4 450 м
[Cu hum Ac trans]
+19.0 +15.3 79 +20 +21 1012.6 1006.6
З 4
{6}
25 км 6/4 450 м
[Cu med, cong Ac trans]
+19.6 +16.1 80 +22 +23 комфорт 1012.0 1006.0
З 5
{8}
25 км 3/0
[Ac trans]
+20.4 +13.6 65 +23 +24 комфорт 1011.7 1005.7
З 5
{8}
20 км 3/0 2000 м
[Ac trans]
+19.0 +11.8 63 +20 +20 1011.2 1005.2
З 5
{9}
25 км 5/3 600 м
[Cu med, cong Ac trans]
+17.2 +11.5 69 +17 +17 1011.0 1005.0
З 4
{8}
25 км 5/3 450 м
[Cu med, cong Ac trans]
+16.4 +10.9 70 +16 +16 1011.1 1005.0
З 5
{7}
20 км 5/3 450 м
[Cu med, cong Ac trans]
+16.0 +12.2 78 +15 +15 1011.1 1005.0 +21.6
СЗ 3 20 км 9/5 450 м
[Cu med, cong Ac As]
+14.2 +8.4 68 +14 +14 1011.3 1005.2 +13.0
СЗ 3 20 км 10/5 450 м
[Cu med, cong Ac As]
+14.8 +8.7 67 +14 +14 1012.5 1006.4
З 2 20 км 10/5 450 м
[Cu med, cong Ac As]
+14.8 +10.4 75 +14 +15 1013.1 1007.0
нст 2 20 км 10/5 450 м
[Cu med, cong Ac As]
+16.0 +11.8 76 +16 +17 1013.1 1007.0
18 км 10/4 450 м
[Cu med, cong Ac As]
+17.0 +12.3 74 1013.1 1007.0
18 км 8/5 450 м
[Cu med, cong Ac trans Ci fib]
+18.0 +12.5 70 1013.1 1007.0
нст 1 4000 м слаб. дождь 10/5 360 м
[Cu med, cong Ac As]
+16.8 +13.3 80 +18 +19 1013.1 1007.0 0.6
0 14 км слаб. дождь 9/5 360 м
[Cu med, cong Ac As]
+15.4 +13.8 90 1013.0 1006.9
В 3 18 км в посл. час дождь 8/5 450 м
[Cu med, cong Ac As]
+16.4 +14.1 86 +16 +17 1012.7 1006.6
ЮВ 3
{5}
20 км {дождь} 6/4 450 м
[Cu med, cong Ac trans]
+15.4 +12.3 82 +15 +15 1012.2 1006.1
ЮВ 4
{6}
20 км 5/3 450 м
[Cu med, cong Ac trans]
+15.2 +12.3 83 +14 +14 1012.2 1006.1
ЮВ 3 18 км 4/3 540 м
[Cu med, cong Ac trans]
+15.2 +12.2 82 +14 +14 1013.1 1007.0
ЮВ 3 10 км {дождь} 3/3 600 м
[Cu med, cong]
+15.4 +13.1 86 +15 +15 1013.2 1007.1 +18.2 6
В 4
{7}
10 км зарница 5/3 450 м
[Cb cap Ac As Ci sp]
+15.8 +13.5 86 +15 +15 1016.1 1010.0 +15.4 2
В 5
{7}
15 км 8/4 450 м
[Cb calv Ac As Ci ing]
+17.0 +13.5 80 +16 +16 1016.1 1010.0
В 6
{9}
15 км 4/4 450 м
[Cb cap]
+18.6 +14.3 76 +19 +19 1016.9 1010.8
В 7
{10}
10 км 4/4 400 м
[Cb cap Ac As]
+19.2 +15.3 78 +20 +21 1017.1 1011.0
В 6
{9}
18 км 6/4 400 м
[Cb cap Ci ing]
+19.0 +14.3 74 +20 +21 1017.3 1011.3
В 6 18 км 5/5 400 м
[Cb calv]
+19.2 +15.3 78 +20 +21 1017.8 1011.8
В 7 4000 м гроза, ливневой дождь 9/8 400 м
[Cb calv Ac As]
+18.0 +15.8 87 +17 +18 1017.6 1011.6 0.2
В 7
{9}
12 км в посл. час гроза 6/5 400 м
[Cb calv Ci ing]
+18.8 +16.2 85 +19 +20 1017.5 1011.5
В 6
{11}
6000 м дождь 8/8 400 м
[Cu med, cong]
+17.8 +15.8 88 +17 +17 1017.6 1011.5
В 7
{10}
10 км в посл. час дождь {гроза} 9/8 400 м
[Cu med, cong Ac As]
+18.0 +15.6 86 +17 +17 1018.0 1011.9
В 7
{10}
7000 м гроза, ливневой дождь 9/8 400 м
[Cb calv Ac As]
+17.2 +14.8 86 +16 +16 1018.3 1012.2
В 11
{15}
7000 м гроза, ливневой дождь 10/8 400 м
[Cb cap Ac As]
+18.0 +15.6 86 +17 +17 1018.2 1012.2
В 7
{11}
10 км в посл. час гроза {дождь} 10/6 400 м
[Cb cap Ac As]
+17.4 +15.0 86 +16 +16 1019.1 1013.0 +20.2 12
ЮВ 5 10 км 10/4 450 м
[Cu med, cong Ac As Cs]
+18.6 +15.8 84 +19 +19 1020.1 1014.0 +17.4
ЮВ 5
{7}
18 км 10/4 450 м
[Cu med, cong Ac As Cs]
+19.0 +16.4 85 +20 +20 1020.6 1014.5
Ю 4
{7}
18 км 9/4 450 м
[Cu med, cong Cs]
+20.0 +17.4 85 +23 +24 комфорт 1020.5 1014.4
нст 2 20 км 8/3 450 м
[Cb calv Ac trans Ci sp]
+20.0 +16.4 80 +23 +25 комфорт 1020.9 1014.8
ЮВ 3 25 км 6/4 450 м
[Cb calv Ci sp]
+20.2 +15.4 74 +23 +26 комфорт 1020.6 1014.6
В 3 25 км 8/3 450 м
[Cu med, cong Ac trans Ci sp]
+20.4 +15.8 75 +24 +26 комфорт 1020.5 1014.5
В 4 20 км 8/3 450 м
[Cu med, cong Ac trans Ci sp]
+20.4 +16.4 78 +24 +25 комфорт 1020.0 1014.0
В 4 25 км 9/1 450 м
[Cb calv Ac trans Ci sp]
+19.2 +15.3 78 +21 +22 комфорт 1019.9 1013.8
В 3 25 км 9/1 450 м
[Cu med, cong Ac trans Ci sp]
+19.0 +16.0 83 +21 +21 комфорт 1019.8 1013.7
В 3 20 км 8/3 450 м
[Cu med, cong Ac trans Ci fib]
+18.8 +16.2 85 +20 +20 1019.7 1013.6
В 3 20 км 6/3 450 м
[Cb calv Ac trans Ci fib]
+18.0 +15.2 84 +18 +18 1019.7 1013.6
В 3
{6}
8000 м слаб. дождь 10/6 450 м
[Cu med, cong Ac As]
+18.0 +15.8 87 +18 +18 1019.7 1013.7
В 4 10 км в посл. час дождь 10/6 450 м
[Cu med, cong Ac As Ci fib]
+17.4 +15.7 90 +17 +17 1020.1 1014.0 +20.8 0.4
В 7
{11}
10 км 5/5 450 м
[Cu med, cong Ac trans]
+16.2 +13.7 85 +15 +15 1018.3 1012.2 +16.2
В 7
{10}
15 км 9/5 450 м
[Cu med, cong Ac trans]
+16.6 +13.7 83 +15 +15 1018.9 1012.8
В 7
{10}
15 км 9/5 450 м
[Cu med, cong Ac trans]
+17.8 +15.1 84 +17 +17 1019.1 1013.0
В 6
{11}
10 км слаб. дождь 10/6 450 м
[Cu med, cong Ac trans]
+17.4 +14.7 84 +17 +17 1019.1 1013.0
ЮВ 4
{7}
20 км {дождь} 6/4 450 м
[Cu med, cong Ac trans]
+17.0 +14.5 85 +17 +19 1019.9 1013.8
В 4 20 км {дождь} 6/4 450 м
[Cu med, cong Ac trans]
+18.4 +15.8 85 +19 +21 1019.9 1013.8
В 6
{9}
20 км {дождь} 8/5 450 м
[Cu med, cong Ac trans]
+18.8 +16.2 85 +19 +20 1019.1 1013.0 0.6
В 5 20 км 8/5 450 м
[Cu med, cong Ac trans]
+18.6 +15.7 83 +19 +20 1019.0 1012.9
СВ 3 20 км 8/5 450 м
[Cu med, cong Ac trans]
+18.0 +15.1 83 +18 +19 1018.5 1012.4
СВ 4 20 км 8/5 450 м
[Cu med, cong Ac trans]
+17.8 +15.2 85 +18 +18 1018.7 1012.6
В 4
{7}
20 км 8/5 450 м
[Cu med, cong Ac trans]
+16.4 +14.2 87 +16 +16 1018.5 1012.4
В 4 20 км 8/5 450 м
[Cu med, cong Ac trans]
+16.8 +14.4 86 +16 +16 1018.6 1012.5
В 3 20 км 8/5 450 м
[Cu med, cong Ac trans]
+17.0 +14.5 85 +17 +17 1019.1 1013.0 +19.6 0.6
нст 2 20 км 10/6 450 м
[Cu med, cong Ac trans]
+16.0 +13.1 83 +16 +16 1019.3 1013.2 +15.0 2
СВ 2 20 км 10/6 450 м
[Cu med, cong Ac trans]
+16.6 +13.7 83 +17 +17 1020.1 1014.0
В 3 20 км 9/5 450 м
[Cu med, cong Ac trans]
+16.8 +13.9 83 +17 +17 1020.1 1014.0
В 4 20 км 8/5 450 м
[Cu med, cong Ac trans]
+18.0 +14.5 80 +18 +19 1020.1 1014.0
В 3 25 км 6/4 450 м
[Cu med, cong Ac trans]
+18.4 +15.5 83 +19 +21 1020.1 1014.0
СВ 4 25 км 6/4 450 м
[Cu med, cong Ac trans]
+18.8 +15.8 83 +20 +22 1020.1 1014.0
В 5 20 км 6/4 450 м
[Cu med, cong Ac trans]
+18.0 +15.3 84 +18 +19 1019.8 1013.7
СВ 3 25 км 8/5 450 м
[Cu med, cong Ac trans]
+16.4 +13.9 85 +16 +17 1019.8 1013.7
СВ 3 25 км 8/5 450 м
[Cu med, cong Ac trans]
+16.0 +13.7 86 +16 +16 1019.6 1013.5
СВ 4 20 км 8/5 450 м
[Cu med, cong Ac trans]
+16.4 +14.1 86 +16 +16 1019.5 1013.4
Местоположение метеостанции Коццо Спадаро (Италия): широта 36.68 долгота 15.13 высота над уровнем моря 51 м.
В архиве по умолчанию представлена погода в Коццо Спадаро за последнюю неделю. Архивные данные за месяц целиком и за предыдущие месяцы, начиная с января 2011 года, Вы можете получить, выбрав интересующий диапазон дат из раскрывающегося списка и нажав кнопку "Найти!".
*Определитесь, кто Вы:
Внимание! Время в таблицах - всемирное. Для получения местного времени необходимо прибавить поправку, которая равна 1 ч.
Смотрите также архив погоды в соседних городах и на ближайших метеорологических станциях:
Партнеры нашего сайта:      
Пояснения к столбцам:
  • Ветер - указаны скорость ветра в м/с - средняя за 10 мин, порывы в срок и между сроками (в фигурных скобках) и направление, откуда дует ветер: С - северный,
  • СВ - северо-восточный, В - восточный, ЮВ - юго-восточный, Ю - южный, ЮЗ - юго-западный, З - западный, СЗ - северо-западный.
  • Видимость - горизонтальная дальность видимости в метрах или километрах. При видимости от 1 до 10 км при отсутствии осадков обычно наблюдается дымка, при ухудшении видимости до 1 км и менее - туман. В сухую погоду видимость может ухудшаться дымом, пылью или мглою.
  • Явления - указаны атмосферные явления, наблюдавшиеся в срок или в последний час перед сроком; фигурными скобками обозначены явления, наблюдавшиеся между сроками (за 1-3 часа до срока); квадратными скобками обозначены град или гололедные отложения с указанием их диаметра в мм.
  • Облачность - указаны через наклонную черту общая и нижняя облачность в баллах и высота нижней границы облаков в метрах; квадратными скобками обозначены формы облаков: Ci - перистые, Cs - перисто-слоистые, Cc - перисто-кучевые, Ac - высококучевые, As - высокослоистые, Sc - слоисто-кучевые, Ns - слоисто-дождевые, Cu - кучевые, Cb - кучево-дождевые. Подробнее классификацию облаков см. в Атласе облаков (PDF).
  • T - Температура воздуха - температура, измеренная на высоте 2 м над землей.
  • Td - Температура точки росы - температура, при понижении до которой содержащийся в воздухе водяной пар достигнет насыщения.
  • f - Относительная влажность воздуха - влажноcть воздуха, измеренная на высоте 2 м над землей.
  • Te - Эффективная температура - температура, которую ощущает одетый по сезону человек в тени. Характеристика душности погоды. При расчете учитывается влияние влажности воздуха и скорости ветра на теплоощущения человека.
  • Tes - Эффективная температура на солнце - температура, которую ощущает человек, с поправкой на солнечный нагрев. Характеристика знойности погоды. Зависит от высоты солнца над горизонтом, облачности и скорости ветра. Ночью, в пасмурную погоду, а также при ветре 12 м/с и более поправка равна нулю.
  • P - Атмосферное давление - приведенное к уровню моря атмосферное давление.
  • Po - Атмосферное давление - измеренное на уровне метеостанции атмосферное давление.
  • Tmin - Минимальная температура - минимум температуры воздуха на высоте 2 м над землей.
  • Tmax - Максимальная температура - максимум температуры воздуха на высоте 2 м над землей.
  • R - Количество осадков - Количество выпавших осадков за период времени, мм. При наведении курсора мыши на число - период времени, за который выпало указанное количество осадков.
  • R24 - Количество осадков - Количество выпавших осадков за 24 часа, мм.
  • S - Снежный покров - Высота снежного покрова, см. При наведении курсора мыши на число - состояние снежного покрова и степень покрытия местности в баллах.